WB6TTB Weather Reports


Display with metric or nautical units.
time (UTC)temp
F
wind
direction
speed
MPH
gust
MPH
rain 1hr
in
rain 24hr
in
rain mn
in
humidity
%
barometer
mb
20260504050603 53 0 0.0 0.0 0.00 0.00 0.00 94 1013.5
20260504050003 53 0 0.0 0.0 0.00 0.00 0.00 94 1013.4
20260504045403 53 0 0.0 0.0 0.00 0.00 0.00 94 1013.4
20260504043003 53 0 0.0 0.0 0.00 0.00 0.00 94 1013.1
20260504042403 53 0 0.0 0.0 0.00 0.00 0.00 93 1013.1
20260504041803 53 0 0.0 0.0 0.00 0.00 0.00 93 1013.0
20260504041203 53 0 0.0 0.0 0.00 0.00 0.00 93 1013.1
20260504040603 53 0 0.0 0.0 0.00 0.00 0.00 93 1013.0
20260504040003 53 0 0.0 0.0 0.00 0.00 0.00 92 1012.9
20260504035403 53 0 0.0 0.0 0.00 0.00 0.00 92 1012.8
20260504034804 53 0 0.0 0.0 0.00 0.00 0.00 92 1012.9
20260504033604 54 0 0.0 0.0 0.00 0.00 0.00 91 1012.7
20260504032404 54 0 0.0 0.0 0.00 0.00 0.00 90 1012.6
20260504031204 54 0 0.0 0.0 0.00 0.00 0.00 90 1012.5
20260504030603 54 0 0.0 0.0 0.00 0.00 0.00 90 1012.6
20260504030004 54 0 0.0 0.0 0.00 0.00 0.00 90 1012.4
20260504024803 54 0 0.0 0.0 0.00 0.00 0.00 90 1012.4
20260504023603 55 0 0.0 0.0 0.00 0.00 0.00 89 1012.1
20260504021803 56 0 0.0 0.0 0.00 0.00 0.00 87 1012.1
20260504021203 56 0 0.0 0.0 0.00 0.00 0.00 86 1012.1
20260504020603 56 0 0.0 0.0 0.00 0.00 0.00 86 1012.1
20260504020003 56 0 0.0 0.0 0.00 0.00 0.00 86 1012.1
20260504015403 56 0 0.0 0.0 0.00 0.00 0.00 86 1012.2
20260504014803 57 0 0.0 0.0 0.00 0.00 0.00 86 1012.2
20260504014203 57 0 0.0 0.0 0.00 0.00 0.00 86 1012.2
20260504013003 56 291 0.0 1.0 0.00 0.00 0.00 87 1012.3
20260504012403 56 288 0.0 1.0 0.00 0.00 0.00 86 1012.2
20260504011804 56 284 0.0 1.0 0.00 0.00 0.00 86 1012.4
20260504011204 56 256 0.0 1.0 0.00 0.00 0.00 85 1012.3
20260504010004 56 256 0.0 1.0 0.00 0.00 0.00 85 1012.5
20260504004803 56 277 0.0 1.0 0.00 0.00 0.00 86 1012.5
20260504004204 56 267 0.0 1.0 0.00 0.00 0.00 85 1012.5
20260504003604 56 294 0.0 1.0 0.00 0.00 0.00 85 1012.3
20260504003004 57 290 0.0 3.0 0.00 0.00 0.00 85 1012.2
20260504001803 57 291 0.0 1.0 0.00 0.00 0.00 84 1012.1
20260504001203 57 288 0.0 1.0 0.00 0.00 0.00 84 1012.0
20260504000603 57 281 0.0 1.0 0.00 0.00 0.00 85 1012.0
20260504000004 57 306 0.0 2.0 0.00 0.00 0.00 84 1012.0
20260503235403 57 291 0.0 3.0 0.00 0.00 0.00 84 1012.0
20260503234803 57 292 0.0 3.0 0.00 0.00 0.00 84 1011.9
20260503233603 57 274 0.0 1.0 0.00 0.00 0.00 82 1012.0
20260503232403 57 283 0.0 3.0 0.00 0.00 0.00 82 1012.1
20260503231803 57 288 0.0 2.0 0.00 0.00 0.00 81 1012.0
20260503231203 57 302 0.0 2.0 0.00 0.00 0.00 81 1011.9
20260503230003 57 297 0.0 3.0 0.00 0.00 0.00 80 1012.0
20260503225404 57 297 0.0 3.0 0.00 0.00 0.00 82 1011.9
20260503224804 58 308 0.0 1.0 0.00 0.00 0.00 81 1012.0
20260503224204 58 0 0.0 0.0 0.00 0.00 0.00 82 1012.0
20260503223604 58 0 0.0 0.0 0.00 0.00 0.00 82 1012.1
20260503223004 58 306 0.0 1.0 0.00 0.00 0.00 82 1012.2
20260503221804 58 302 0.0 1.0 0.00 0.00 0.00 80 1012.3
20260503221204 59 292 0.0 1.0 0.00 0.00 0.00 80 1012.2
20260503220603 59 292 0.0 1.0 0.00 0.00 0.00 80 1012.3
20260503220004 60 0 0.0 0.0 0.00 0.00 0.00 80 1012.3
20260503215403 60 274 0.0 1.0 0.00 0.00 0.00 79 1012.2
20260503214803 60 296 0.0 3.0 0.00 0.00 0.00 77 1012.2
20260503214203 60 298 0.0 3.0 0.00 0.00 0.00 78 1012.0
20260503213603 60 297 0.0 3.0 0.00 0.00 0.00 78 1012.1
20260503213003 60 289 0.0 2.0 0.00 0.00 0.00 77 1012.1
20260503212403 60 283 0.0 3.0 0.00 0.00 0.00 76 1012.1
20260503211803 60 292 0.0 1.0 0.00 0.00 0.00 78 1012.1
20260503211203 59 294 0.0 1.0 0.00 0.00 0.00 79 1012.2
20260503210603 59 293 0.0 2.0 0.00 0.00 0.00 79 1012.3
20260503210003 60 287 0.0 2.0 0.00 0.00 0.00 77 1012.3
20260503204803 59 295 0.0 1.0 0.00 0.00 0.00 79 1012.2
20260503204203 59 289 0.0 1.0 0.00 0.00 0.00 79 1012.2
20260503203603 59 288 0.0 1.0 0.00 0.00 0.00 80 1012.2
20260503202404 59 0 0.0 1.0 0.00 0.00 0.00 80 1012.2
20260503131204 52 0 0.0 0.0 0.00 0.00 0.00 90 1010.1
20260503110603 52 0 0.0 0.0 0.00 0.00 0.00 92 1010.1
20260503081204 52 0 0.0 0.0 0.00 0.00 0.00 92 1010.9
20260503072403 52 0 0.0 0.0 0.00 0.00 0.00 92 1010.9
20260503071803 52 0 0.0 0.0 0.00 0.00 0.00 92 1010.9